This is the latest recevied weather packets stored in our database for station/object W3JGB. If no packets are shown the sender has not sent any weather packets the latest 10 day(s).
| Time | Temp. | Humidity | Pressure | Rain* | Wind** | Luminosity | Snow |
|---|---|---|---|---|---|---|---|
| 1777683011 | 8.33° C | 99% | 1011.8 hPa | 0 mm | - | 0 W/m² | - |
| 1777682707 | 8.33° C | 99% | 1011.7 hPa | 0 mm | - | 0 W/m² | - |
| 1777682404 | 8.89° C | 99% | 1011.5 hPa | 0 mm | - | 0 W/m² | - |
| 1777682101 | 8.89° C | 99% | 1011.8 hPa | 0 mm | - | 0 W/m² | - |
| 1777681797 | 8.89° C | 99% | 1011.5 hPa | 0 mm | - | 0 W/m² | - |
| 1777681495 | 8.89° C | 99% | 1011.4 hPa | 0 mm | - | 0 W/m² | - |
| 1777681192 | 8.89° C | 99% | 1011.4 hPa | 0 mm | - | 0 W/m² | - |
| 1777680889 | 8.89° C | 99% | 1011.4 hPa | 0 mm | - | 0 W/m² | - |
| 1777680587 | 8.89° C | 99% | 1011.5 hPa | 0 mm | - | 0 W/m² | - |
| 1777680286 | 8.89° C | 99% | 1011.5 hPa | 1.27 mm | - | 0 W/m² | - |
| 1777679981 | 8.89° C | 99% | 1011.3 hPa | 1.27 mm | - | 0 W/m² | - |
| 1777679677 | 8.89° C | 99% | 1011.5 hPa | 0 mm | - | 0 W/m² | - |
| 1777679372 | 8.89° C | 99% | 1011.3 hPa | 0 mm | - | 2 W/m² | - |
| 1777679069 | 9.44° C | 99% | 1011.2 hPa | 0 mm | - | 4 W/m² | - |
| 1777678768 | 9.44° C | 98% | 1011.5 hPa | 0 mm | - | 4 W/m² | - |
| 1777678465 | 9.44° C | 98% | 1011.4 hPa | 0 mm | - | 6 W/m² | - |
| 1777678160 | 9.44° C | 98% | 1011.3 hPa | 0 mm | - | 13 W/m² | - |
| 1777677858 | 9.44° C | 97% | 1011.3 hPa | 0 mm | - | 10 W/m² | - |
| 1777677555 | 9.44° C | 97% | 1011.2 hPa | 0 mm | - | 13 W/m² | - |
| 1777677254 | 9.44° C | 97% | 1010.9 hPa | 0 mm | - | 17 W/m² | - |
| 1777676951 | 9.44° C | 97% | 1010.9 hPa | 0 mm | - | 21 W/m² | - |
| 1777676650 | 9.44° C | 97% | 1010.9 hPa | 0 mm | - | 24 W/m² | - |
| 1777676347 | 9.44° C | 97% | 1010.8 hPa | 0 mm | - | 33 W/m² | - |
| 1777676044 | 9.44° C | 96% | 1010.8 hPa | 0 mm | - | 39 W/m² | - |
| 1777675740 | 9.44° C | 95% | 1010.6 hPa | 0 mm | - | 41 W/m² | - |
* Rain latest hour (hover to see other rain measurements)
** Current wind speed in m/s (hover to see current wind gust speed)